EW8130 Weather Reports


Display with metric or nautical units.
time (UTC)temp
F
wind
direction
speed
MPH
gust
MPH
rain 1hr
in
rain 24hr
in
rain mn
in
humidity
%
barometer
mb
20260507090033 54 318 0.0 0.0 0.00 0.00 0.00 87 996.5
20260507084541 54 292 0.0 0.0 0.00 0.00 0.00 87 996.7
20260507083031 54 293 0.0 0.0 0.00 0.00 0.00 88 996.3
20260507081536 54 310 0.0 1.0 0.00 0.00 0.00 89 996.4
20260507080028 54 304 0.0 1.0 0.00 0.00 0.00 89 996.2
20260507074526 54 305 0.0 1.0 0.00 0.00 0.00 90 995.9
20260507073023 55 313 0.0 0.0 0.00 0.00 0.00 89 995.7
20260507071523 55 318 0.0 1.0 0.00 0.00 0.00 89 995.9
20260507070021 55 326 0.0 6.0 0.00 0.00 0.00 88 995.9
20260507064520 55 330 0.0 0.0 0.00 0.00 0.00 88 996.0
20260507063023 56 359 0.0 1.0 0.00 0.00 0.00 87 996.0
20260507061516 56 325 0.0 2.0 0.00 0.00 0.00 86 995.8
20260507060017 57 320 1.0 9.0 0.00 0.00 0.00 84 995.8
20260507054511 57 318 0.0 1.0 0.00 0.00 0.00 82 995.9
20260507053009 57 329 0.0 9.0 0.00 0.00 0.00 81 995.8
20260507051508 58 323 0.0 1.0 0.00 0.00 0.00 80 995.9
20260507050012 58 310 1.0 10.0 0.00 0.00 0.00 80 996.0
20260507044505 58 291 0.0 8.0 0.00 0.00 0.00 80 996.1
20260507043010 58 265 0.0 1.0 0.00 0.00 0.00 81 996.1
20260507041504 59 302 0.0 11.0 0.00 0.00 0.00 80 996.4
20260507040004 59 305 0.0 1.0 0.00 0.00 0.00 80 996.4
20260507034502 59 288 0.0 10.0 0.00 0.00 0.00 81 996.3
20260507033001 59 277 0.0 2.0 0.00 0.00 0.00 80 996.3
20260507031559 59 296 1.0 10.0 0.00 0.00 0.00 80 995.9
20260507030057 59 299 0.0 1.0 0.00 0.00 0.00 81 995.7
20260507024557 59 295 0.0 10.0 0.00 0.00 0.00 82 995.6
20260507023107 58 284 1.0 8.0 0.00 0.00 0.00 83 995.2
20260507021552 59 282 0.0 2.0 0.00 0.00 0.00 84 995.1
20260507020057 59 266 1.0 10.0 0.00 0.00 0.00 84 994.8
20260507014550 59 279 0.0 10.0 0.00 0.00 0.00 85 994.2
20260507013049 58 272 0.0 0.0 0.00 0.00 0.00 85 994.0
20260507011550 58 303 0.0 1.0 0.00 0.00 0.00 85 993.9
20260507010049 58 298 0.0 9.0 0.00 0.00 0.00 84 993.6
20260507004553 58 325 0.0 1.0 0.00 0.00 0.00 84 993.6
20260507003051 59 283 0.0 5.0 0.00 0.00 0.00 84 993.6
20260507001609 59 291 0.0 10.0 0.00 0.00 0.00 83 993.2
20260507000047 59 243 0.0 7.0 0.00 0.00 0.00 82 993.3
20260506234552 59 313 0.0 10.0 0.00 0.00 0.00 82 992.9
20260506233046 59 295 0.0 0.0 0.00 0.00 0.00 82 993.1
20260506231554 59 280 0.0 1.0 0.00 0.00 0.00 81 993.0
20260506230054 59 280 0.0 1.0 0.00 0.00 0.00 81 992.9
20260506224544 60 269 0.0 10.0 0.00 0.00 0.00 81 992.8
20260506223043 60 248 1.0 7.0 0.00 0.00 0.00 80 992.5
20260506221557 60 275 0.0 6.0 0.00 0.00 0.00 80 992.4
20260506220043 60 309 0.0 8.0 0.00 0.00 0.00 80 991.9
20260506214542 60 226 0.0 10.0 0.00 0.00 0.00 80 992.1
20260506213041 59 281 0.0 7.0 0.00 0.00 0.00 83 992.3
20260506211541 59 280 0.0 8.0 0.00 0.00 0.00 83 992.4
20260506210052 60 276 0.0 1.0 0.00 0.00 0.00 80 992.5
20260506204546 60 289 0.0 1.0 0.00 0.00 0.00 79 993.0
20260506203041 60 242 0.0 2.0 0.00 0.00 0.00 78 992.8
20260506201539 60 224 0.0 2.0 0.00 0.00 0.00 79 993.0
20260506200040 59 260 0.0 1.0 0.00 0.00 0.00 80 993.1
20260506194537 59 258 0.0 2.0 0.00 0.00 0.00 80 993.5
20260506193043 58 197 0.0 3.0 0.00 0.00 0.00 82 992.8
20260506191538 57 226 0.0 7.0 0.00 0.00 0.00 82 993.7
20260506190038 57 282 0.0 8.0 0.00 0.00 0.00 83 993.4
20260506184543 57 251 0.0 8.0 0.00 0.00 0.00 83 993.0
20260506183034 57 314 0.0 0.0 0.00 0.00 0.00 83 993.1
20260506181540 57 293 0.0 10.0 0.00 0.00 0.00 83 993.0
20260506180035 57 359 0.0 12.0 0.00 0.00 0.00 83 991.5
20260506174536 57 245 0.0 10.0 0.00 0.00 0.00 83 991.7
20260506173033 56 279 0.0 9.0 0.00 0.00 0.00 84 992.4
20260506171535 56 252 0.0 1.0 0.00 0.00 0.00 84 993.9
20260506170038 56 261 0.0 8.0 0.00 0.00 0.00 84 993.7
20260506164545 57 266 2.0 10.0 0.00 0.00 0.00 82 992.5
20260506163035 56 284 0.0 10.0 0.00 0.00 0.00 81 993.6
20260506161530 55 259 1.0 9.0 0.00 0.00 0.00 85 993.0
20260506160033 55 249 0.0 2.0 0.00 0.00 0.00 86 993.5
20260506154528 54 279 0.0 0.0 0.00 0.00 0.00 85 993.8
20260506153027 55 267 0.0 8.0 0.00 0.00 0.00 83 994.0
20260506151527 55 222 0.0 1.0 0.00 0.00 0.00 83 995.0
20260506150023 54 242 3.0 12.0 0.00 0.00 0.00 83 993.7
20260506144527 54 243 0.0 7.0 0.00 0.00 0.00 83 993.6
20260506143024 55 283 0.0 1.0 0.00 0.00 0.00 82 993.2
20260506141528 54 271 0.0 1.0 0.00 0.00 0.00 83 992.9
20260506140017 54 180 1.0 10.0 0.00 0.00 0.00 84 992.6
20260506134516 54 253 0.0 1.0 0.00 0.00 0.00 84 992.6
20260506133015 54 235 0.0 4.0 0.00 0.00 0.00 83 992.2
20260506131513 55 298 0.0 9.0 0.00 0.00 0.00 82 992.0
20260506130012 55 274 0.0 13.0 0.00 0.00 0.00 81 992.1
20260506124509 55 251 0.0 8.0 0.00 0.00 0.00 80 991.8
20260506123007 55 228 0.0 9.0 0.00 0.00 0.00 80 991.4
20260506121511 56 244 0.0 5.0 0.00 0.00 0.00 79 991.3
20260506120008 56 241 1.0 10.0 0.00 0.00 0.00 78 991.3
20260506114602 56 222 0.0 7.0 0.00 0.00 0.00 78 991.1
20260506113058 57 256 0.0 10.0 0.00 0.00 0.00 78 990.7
20260506111555 57 231 0.0 2.0 0.00 0.00 0.00 76 990.6
20260506110104 58 252 0.0 1.0 0.00 0.00 0.00 77 990.2
20260506103050 58 254 0.0 1.0 0.00 0.00 0.00 76 989.8
20260506101547 58 246 0.0 9.0 0.00 0.00 0.00 77 989.4
20260506100053 58 279 0.0 1.0 0.00 0.00 0.00 77 989.2
20260506094544 58 281 0.0 5.0 0.00 0.00 0.00 76 989.1
20260506093042 59 273 0.0 10.0 0.00 0.00 0.00 76 989.2
20260506091541 59 233 0.0 2.0 0.00 0.00 0.00 77 989.0